Miscellaneous Local Product
Issued by NWS Hastings, NE

Home | Current Version | Previous Version | Graphics & Text | Print | Product List | Glossary On
Versions: 1 2 3 4 5 6 7 8 9 10 11 12 13 14 15 16 17 18 19 20 21 22 23 24 25 26 27 28 29 30 31 32 33 34 35 36 37 38 39 40 41 42 43 44 45 46 47 48 49 50
000
AXUS43 KGID 270802
MISGRI

GID CWA HOURLY WEATHER ROUNDUP
NATIONAL WEATHER SERVICE HASTINGS NE
300 AM CDT TUE JUN 27 2017

NOTE: "FAIR" INDICATES FEW OR NO CLOUDS BELOW 12,000 FEET WITH NO
SIGNIFICANT WEATHER AND/OR OBSTRUCTIONS TO VISIBILITY.

...SOUTH CENTRAL NEBRASKA...

CITY           SKY/WX    TMP DP  RH WIND       PRES   REMARKS
GRAND ISLAND   CLEAR     58  58 100 SE7       30.13F FOG
HASTINGS       CLOUDY    59  57  93 SE9       30.14S FOG
KEARNEY        PTCLDY    57  54  88 SE6       30.12F
ORD            CLEAR     51  45  79 E3        30.10F
YORK           PTCLDY    57  57 100 SE5       30.13F FOG
AURORA         FOG       57  57 100 SE6       30.13S VSB 1/4
LEXINGTON      CLEAR     60  57  91 SE9       30.11F
HOLDREGE       MOCLDY    59  57  95 SE10      30.11F FOG
HEBRON         FOG       57  57  97 CALM      30.13F VSB 1/2

...NEBRASKA PANHANDLE...

CITY           SKY/WX    TMP DP  RH WIND       PRES   REMARKS
CHADRON        CLEAR     66  48  52 S31G40    29.93F
ALLIANCE       CLEAR     59  50  72 S16G26    30.04F
SCOTTSBLUFF    CLOUDY    64  54  69 SE14      30.02F
SIDNEY         PTCLDY    60  53  77 S17       30.08F

...WESTERN AND NORTH CENTRAL NEBRASKA...

CITY           SKY/WX    TMP DP  RH WIND       PRES   REMARKS
VALENTINE      CLEAR     58  42  55 S8        30.06F
AINSWORTH      CLEAR     54  45  72 S12       30.08F
ONEILL         CLEAR     50  44  80 S7        30.11S
BROKEN BOW     CLEAR     53  48  83 SE5       30.11S
IMPERIAL       CLEAR     60  55  83 SE12      30.09F
NORTH PLATTE   CLEAR     55  52  89 E9        30.09F
MCCOOK         PTCLDY    61  59  93 E9        30.09F

...EASTERN NEBRASKA...

CITY           SKY/WX    TMP DP  RH WIND       PRES   REMARKS
NORFOLK        CLEAR     49  43  80 SE7       30.12F
SO SIOUX CITY  CLEAR     49  45  86 SE6       30.13F
TEKAMAH        CLEAR     49  41  74 CALM      30.13F
COLUMBUS       CLEAR     52  47  83 E3        30.13F
ALBION         CLEAR     48  43  83 CALM      30.12F
OMAHA EPPLEY   CLEAR     57  49  74 CALM      30.14S
OFFUTT AFB     CLEAR     51  49  92 E3        30.13S
MILLARD        CLEAR     56  54  91 CALM      30.14S
LINCOLN        CLEAR     56  51  84 CALM      30.14F
NEBRASKA CITY  CLEAR     59  59 100 CALM      30.14S
BEATRICE       CLEAR     56  56  99 CALM      30.13F FOG
FALLS CITY     FOG       55  55 100 CALM      30.13F VSB 1/4

...NORTHERN KANSAS...

CITY           SKY/WX    TMP DP  RH WIND       PRES   REMARKS
GOODLAND       CLOUDY    60  58  92 SE13      30.09F
HILL CITY      CLEAR     62  61  96 E9        30.08F
NORTON         MOSUNNY   61  55  82 E10       30.09F
PHILLIPSBURG   PTCLDY    63  61  94 E9        30.09F
SMITH CENTER   CLEAR     59  57  94 E9        30.11F
HAYS           CLEAR     62  60  93 E10       30.07F
RUSSELL        PTCLDY    63  60  90 E10       30.06F
CONCORDIA      CLOUDY    59  59 100 E7        30.12S FOG
SALINA         MOCLDY    66  61  84 E7        30.09F
TOPEKA         CLEAR     58  58 100 E3        30.13F



USA.gov is the U.S. government's official web portal to all federal, state and local government web resources and services.